Regional Weather Roundup
Issued by NWS

Home | Current Version | Previous Version | Graphics & Text | Print | Product List | Glossary On
Versions: 1 2 3 4 5 6 7 8 9 10 11 12 13 14 15 16 17 18 19 20 21 22 23 24 25 26 27 28 29 30 31 32 33 34 35 36 37 38 39 40 41 42 43 44 45 46 47 48 49 50
000
ASUS43 KOAX 091502
RWRNE

WEATHER ROUNDUP FOR NEBRASKA
NATIONAL WEATHER SERVICE OMAHA NE
900 AM CST TUE FEB 09 2016

NOTES: SATELLITE DATA IS BEING USED TO AUGMENT CLOUD COVER ABOVE
       12000 FEET.
       "FAIR" INDICATES FEW OR NO CLOUDS BELOW 12,000 FEET WITH NO
       SIGNIFICANT WEATHER AND/OR OBSTRUCTIONS TO VISIBILITY.

  * THESE STATIONS DO NOT REPORT WEATHER SUCH AS RAIN...SNOW OR FOG.

NEZ001>004-019>022-054>056-091600-
NEBRASKA PANHANDLE

CITY           SKY/WX    TMP DP  RH WIND       PRES   REMARKS
SCOTTSBLUFF    CLEAR     32  24  72 NW10      30.26S WCI  24
ALLIANCE       SUNNY     32  25  75 W12       30.20F WCI  23
CHADRON        CLOUDY    37  28  70 W15       30.23S WCI  28
SIDNEY         SUNNY     34  24  67 NW18      30.24S WCI  23
$$

NEZ057>060-069>072-079>082-091600-
SOUTHWEST NEBRASKA

CITY           SKY/WX    TMP DP  RH WIND       PRES   REMARKS
NORTH PLATTE   CLOUDY    27  20  75 NW6       30.24S WCI  20
IMPERIAL       SUNNY     29  22  75 NW9       30.24F WCI  20
MCCOOK         CLOUDY    28  19  69 NW10      30.26R WCI  19
$$

NEZ005>010-023>029-035>040-094-091600-
NORTH CENTRAL NEBRASKA

CITY           SKY/WX    TMP DP  RH WIND       PRES   REMARKS
VALENTINE      FLURRIES  22  17  81 NE8       30.26S WCI  12
BROKEN BOW     CLOUDY    26  19  74 N14       30.24R WCI  14
ORD            CLOUDY    23  13  65 N18G25    30.26R WCI   9
$$

NEZ041-046>049-061>064-073>077-083>087-091600-
SOUTH CENTRAL NEBRASKA

CITY           SKY/WX    TMP DP  RH WIND       PRES   REMARKS
GRAND ISLAND   PTSUNNY   21  12  68 N16       30.28R WCI   7
HASTINGS       CLOUDY    25  15  66 N16       30.25R WCI  12
$$

NEZ011>018-030>034-042>045-091600-
NORTHEAST NEBRASKA

CITY           SKY/WX    TMP DP  RH WIND       PRES   REMARKS
NORFOLK        SUNNY     16   7  67 NW18      30.24R WCI   0
COLUMBUS *     SUNNY     16   1  53 NW16G22   30.26R WCI   0
TEKAMAH        SUNNY     15   4  61 NW26      30.24R WCI  -4
$$

NEZ050>053-065>068-078-088>093-091600-
SOUTHEAST NEBRASKA

CITY           SKY/WX    TMP DP  RH WIND       PRES   REMARKS
LINCOLN        SUNNY     18   7  62 N20       30.27R WCI   2
OMAHA EPPLEY   MOSUNNY   15   5  64 N25G31    30.22R WCI  -4
FALLS CITY     MOSUNNY   19   8  62 NW17G24   30.20R WCI   4
$$

NEZ044-045-051>053-067-091600-
OMAHA AREA

CITY           SKY/WX    TMP DP  RH WIND       PRES   REMARKS
OMAHA EPPLEY   MOSUNNY   15   5  64 N25G31    30.22R WCI  -4
$$



USA.gov is the U.S. government's official web portal to all federal, state and local government web resources and services.